Content
SEND FEEDBACK

Daily
Averages
Monthly
Summary
India

TRIVANDRUM, INDIA


Home > Asia > India
Elevation: 205 feet     Latitude: 08 29N     Longitude: 076 57E

WEATHER
 
SELECT A DAY
Number of Records: 112,541;   Date Range: 7/1/96 - 8/10/14
 
SHARE

PRINT THIS DATA

[ ← Previous Day ]
WEATHER ALMANAC - JANUARY 14, 2013
[ Next Day → ]
[ °C ]   °F
Weather ElementAverageHighLow
Temperature81.6 °F87.8 °F (1:10 pm)71.6 °F (6:10 am)
Dewpoint70.7 °F73.4 °F (5:10 pm)68 °F (5:10 am)
Humidity70.2 %94 % (6:10 am)58 % (1:10 pm)
Barometer29.84 in29.89 in (7:10 am)29.80 in (1:10 am)
Wind Speed3.9 mph9.2 mph (2:10 pm)
Weather ElementAverage
Visibility3.1 mi
Wind DirectionSSE (156 °)

Weather ElementTotal
Precipitation---
Cooling Degree Days14.7 (Base 65)
Growing Degree Days29.7 (Base 50)
Averaged from 30 records on January 14, 2013
WEATHER CONDITIONS BREAKOUT
WIND DIRECTION BREAKOUT
WEATHER BY HOUR - JANUARY 14, 2013
[ °C ]   °F
Local TimeTemperatureDewpointHumidityBarometerVisibilityWind DirectionWind SpeedGust SpeedPrecipitationEventsConditions
1:10 AM77.0 °F71.6 °F83 %29.80 in2.5 miCalmHaze
2:40 AM75.2 °F69.8 °F83 %29.80 in1.9 miSE (130°)3.5 mphHaze
3:10 AM75.2 °F69.8 °F83 %29.80 in1.9 miSSE (150°)3.5 mphHaze
4:40 AM73.4 °F69.8 °F88 %29.83 in1.9 miCalmHaze
5:10 AM73.4 °F68.0 °F83 %29.83 in1.9 miCalmHaze
6:10 AM71.6 °F69.8 °F94 %29.86 inNorthHaze
7:10 AM71.6 °F69.8 °F94 %29.89 in0.9 miCalmPartly Cloudy
9:10 AM80.6 °F69.8 °F70 %29.89 in2.5 miEast (80°)5.8 mphHaze
10:10 AM84.2 °F71.6 °F66 %29.89 in3.7 miNE (50°)2.3 mphPartly Cloudy
11:10 AM86.0 °F71.6 °F62 %29.89 in3.7 miWSW (240°)6.9 mphPartly Cloudy
12:10 PM86.0 °F71.6 °F62 %29.86 in3.7 miSW (230°)8.1 mphPartly Cloudy
1:10 PM87.8 °F71.6 °F58 %29.83 in3.7 miSW (230°)8.1 mphPartly Cloudy
1:40 PM87.8 °F71.6 °F58 %29.83 in3.7 miSSW (200°)8.1 mphPartly Cloudy
2:10 PM87.8 °F71.6 °F58 %29.80 in3.7 miSSW (200°)9.2 mphPartly Cloudy
2:40 PM87.8 °F71.6 °F58 %29.80 in3.7 miSSW (210°)5.8 mphPartly Cloudy
3:10 PM87.8 °F71.6 °F58 %29.80 in3.7 miSSW (200°)6.9 mphPartly Cloudy
3:40 PM87.8 °F71.6 °F58 %29.80 in3.7 miSouth (190°)6.9 mphPartly Cloudy
4:10 PM87.8 °F71.6 °F58 %29.80 in3.7 miSSW (210°)5.8 mphPartly Cloudy
5:10 PM86.0 °F73.4 °F66 %29.80 in3.7 miSouth (190°)4.6 mphPartly Cloudy
6:10 PM84.2 °F69.8 °F62 %29.83 in3.7 miSW (230°)3.5 mphPartly Cloudy
7:10 PM82.4 °F71.6 °F70 %29.83 in3.1 miWest (270°)3.5 mphHaze
7:40 PM82.4 °F71.6 °F70 %29.83 in3.1 miWest (260°)3.5 mphHaze
8:10 PM82.4 °F71.6 °F70 %29.83 in3.1 miWest (270°)3.5 mphHaze
8:40 PM82.4 °F69.8 °F66 %29.83 in3.1 miWest (280°)2.3 mphHaze
9:10 PM80.6 °F69.8 °F70 %29.86 in3.1 miWNW (290°)3.5 mphHaze
9:40 PM80.6 °F69.8 °F70 %29.86 in3.1 miWest (280°)4.6 mphHaze
10:10 PM80.6 °F69.8 °F70 %29.86 in3.1 miWNW (290°)3.5 mphHaze
10:40 PM80.6 °F69.8 °F70 %29.86 in3.1 miCalmHaze
11:10 PM78.8 °F69.8 °F74 %29.83 in3.1 miCalmHaze
11:40 PM78.8 °F69.8 °F74 %29.83 in3.1 miCalmHaze
Hourly data recorded from VOTV, located miles away from Trivandrum, India







STORIES FROM OUR PARTNERS